Retour au catalogue

STARLINK-30366

ActifCommunicationsVLEO
NORAD 57749·PAYLOAD·🇺🇸 United States

Lancé Sep 1, 2023 depuis Cape Canaveral Space Force Station

Loading…

Prochains Passages (prochaines 24 heures)

TLE

FraisSource: CelesTrak SupGP

Époque: Sep 14, 2026, 21:58 UTC

1 57749C 23131T   26257.91576389 -.00006717  00000+0 -24328-3 0  2573
2 57749  42.9992 187.9197 0001367 261.5081 252.2013 15.27581361    16

Suivez STARLINK-30366 en temps réel avec AllMySat

Download on the App Store